Time,TemperatureF,DewpointF,PressureIn,WindDirection,WindDirectionDegrees,WindSpeedMPH,WindSpeedGustMPH,Humidity,HourlyPrecipIn,Conditions,Clouds,dailyrainin,SoftwareType,DateUTC
2013-03-15 00:00:00,26.6,21.0,30.30,WNW,290,0.0,0.0,79,0.00,,,0.00,Wunderground v.1.15,2013-03-15 04:00:00,
2013-03-15 00:05:00,26.5,20.9,30.30,WNW,290,0.0,2.0,79,0.00,,,0.00,Wunderground v.1.15,2013-03-15 04:05:00,
2013-03-15 00:10:00,26.5,20.9,30.30,WNW,290,0.0,0.0,79,0.00,,,0.00,Wunderground v.1.15,2013-03-15 04:10:00,
2013-03-15 00:15:00,26.4,21.1,30.30,WNW,290,0.0,0.0,80,0.00,,,0.00,Wunderground v.1.15,2013-03-15 04:15:00,
2013-03-15 00:20:00,26.3,21.0,30.31,WNW,290,0.0,0.0,80,0.00,,,0.00,Wunderground v.1.15,2013-03-15 04:20:00,
2013-03-15 00:25:00,26.3,21.0,30.31,WNW,290,0.0,0.0,80,0.00,,,0.00,Wunderground v.1.15,2013-03-15 04:25:00,
2013-03-15 00:35:00,26.0,20.7,30.31,WNW,290,0.0,1.0,80,0.00,,,0.00,Wunderground v.1.15,2013-03-15 04:35:00,
2013-03-15 00:40:00,25.8,20.8,30.31,WNW,290,0.0,1.0,81,0.00,,,0.00,Wunderground v.1.15,2013-03-15 04:40:00,
2013-03-15 00:45:00,25.7,21.0,30.31,WNW,290,1.0,1.0,82,0.00,,,0.00,Wunderground v.1.15,2013-03-15 04:45:00,
2013-03-15 00:55:00,25.6,20.9,30.30,WNW,290,1.0,1.0,82,0.00,,,0.00,Wunderground v.1.15,2013-03-15 04:55:00,
2013-03-15 01:00:00,25.5,21.1,30.30,WNW,290,0.0,0.0,83,0.00,,,0.00,Wunderground v.1.15,2013-03-15 05:00:00,
2013-03-15 01:10:00,25.3,20.9,30.31,WNW,290,0.0,0.0,83,0.00,,,0.00,Wunderground v.1.15,2013-03-15 05:10:00,
2013-03-15 01:20:00,25.4,21.0,30.30,WNW,290,0.0,2.0,83,0.00,,,0.00,Wunderground v.1.15,2013-03-15 05:20:00,
2013-03-15 01:25:00,25.3,20.9,30.30,WNW,290,0.0,2.0,83,0.00,,,0.00,Wunderground v.1.15,2013-03-15 05:25:00,
2013-03-15 01:30:00,25.2,20.8,30.30,WNW,290,0.0,0.0,83,0.00,,,0.00,Wunderground v.1.15,2013-03-15 05:30:00,
2013-03-15 01:40:00,25.1,20.7,30.29,WNW,290,0.0,0.0,83,0.00,,,0.00,Wunderground v.1.15,2013-03-15 05:40:00,
2013-03-15 01:45:00,24.9,20.5,30.29,WNW,290,0.0,0.0,83,0.00,,,0.00,Wunderground v.1.15,2013-03-15 05:45:00,
2013-03-15 01:55:00,24.6,20.5,30.28,WNW,290,0.0,0.0,84,0.00,,,0.00,Wunderground v.1.15,2013-03-15 05:55:00,
2013-03-15 02:00:00,24.5,20.4,30.28,WNW,290,0.0,0.0,84,0.00,,,0.00,Wunderground v.1.15,2013-03-15 06:00:00,
2013-03-15 02:05:00,24.5,20.4,30.28,WNW,290,0.0,0.0,84,0.00,,,0.00,Wunderground v.1.15,2013-03-15 06:05:00,
2013-03-15 02:10:00,24.4,20.5,30.28,WNW,290,0.0,0.0,85,0.00,,,0.00,Wunderground v.1.15,2013-03-15 06:10:00,
2013-03-15 02:15:00,24.3,20.4,30.28,WNW,290,1.0,1.0,85,0.00,,,0.00,Wunderground v.1.15,2013-03-15 06:15:00,
2013-03-15 02:25:00,24.3,20.2,30.28,WNW,290,0.0,1.0,84,0.00,,,0.00,Wunderground v.1.15,2013-03-15 06:25:00,
2013-03-15 02:30:00,24.2,20.1,30.27,WNW,290,0.0,0.0,84,0.00,,,0.00,Wunderground v.1.15,2013-03-15 06:30:00,
2013-03-15 02:40:00,24.1,20.2,30.27,WNW,290,1.0,1.0,85,0.00,,,0.00,Wunderground v.1.15,2013-03-15 06:40:00,
2013-03-15 02:45:00,24.0,19.9,30.27,WNW,290,1.0,1.0,84,0.00,,,0.00,Wunderground v.1.15,2013-03-15 06:45:00,
2013-03-15 02:50:00,24.2,20.1,30.27,WNW,290,0.0,0.0,84,0.00,,,0.00,Wunderground v.1.15,2013-03-15 06:50:00,
2013-03-15 02:55:00,24.4,20.3,30.27,WNW,290,0.0,1.0,84,0.00,,,0.00,Wunderground v.1.15,2013-03-15 06:55:00,
2013-03-15 03:05:00,24.5,20.1,30.28,WNW,290,1.0,2.0,83,0.00,,,0.00,Wunderground v.1.15,2013-03-15 07:05:00,
2013-03-15 03:10:00,24.2,20.3,30.27,WNW,290,1.0,1.0,85,0.00,,,0.00,Wunderground v.1.15,2013-03-15 07:10:00,
2013-03-15 03:15:00,24.0,20.1,30.27,WNW,290,0.0,1.0,85,0.00,,,0.00,Wunderground v.1.15,2013-03-15 07:15:00,
2013-03-15 03:25:00,23.9,20.0,30.28,WNW,290,0.0,1.0,85,0.00,,,0.00,Wunderground v.1.15,2013-03-15 07:25:00,
2013-03-15 03:30:00,23.9,20.0,30.28,WNW,290,0.0,0.0,85,0.00,,,0.00,Wunderground v.1.15,2013-03-15 07:30:00,
2013-03-15 03:35:00,23.8,19.9,30.28,WNW,290,0.0,0.0,85,0.00,,,0.00,Wunderground v.1.15,2013-03-15 07:35:00,
2013-03-15 03:40:00,23.7,20.1,30.28,WNW,290,0.0,0.0,86,0.00,,,0.00,Wunderground v.1.15,2013-03-15 07:40:00,
2013-03-15 03:45:00,23.7,20.1,30.28,WNW,290,0.0,0.0,86,0.00,,,0.00,Wunderground v.1.15,2013-03-15 07:45:00,
2013-03-15 03:55:00,23.9,20.6,30.28,WNW,290,1.0,1.0,87,0.00,,,0.00,Wunderground v.1.15,2013-03-15 07:55:00,
2013-03-15 04:00:00,24.1,20.8,30.28,WNW,290,1.0,1.0,87,0.00,,,0.00,Wunderground v.1.15,2013-03-15 08:00:00,
2013-03-15 04:10:00,24.1,20.5,30.28,WNW,290,0.0,0.0,86,0.00,,,0.00,Wunderground v.1.15,2013-03-15 08:10:00,
2013-03-15 04:20:00,23.9,20.3,30.26,WNW,290,0.0,0.0,86,0.00,,,0.00,Wunderground v.1.15,2013-03-15 08:20:00,
2013-03-15 04:25:00,23.9,20.3,30.27,WNW,290,0.0,0.0,86,0.00,,,0.00,Wunderground v.1.15,2013-03-15 08:25:00,
2013-03-15 04:30:00,23.7,20.1,30.26,WNW,290,0.0,0.0,86,0.00,,,0.00,Wunderground v.1.15,2013-03-15 08:30:00,
2013-03-15 04:35:00,23.4,19.8,30.26,WNW,290,0.0,0.0,86,0.00,,,0.00,Wunderground v.1.15,2013-03-15 08:35:00,
2013-03-15 04:40:00,23.4,20.1,30.26,WNW,290,0.0,0.0,87,0.00,,,0.00,Wunderground v.1.15,2013-03-15 08:40:00,
2013-03-15 04:45:00,23.5,20.2,30.26,WNW,290,0.0,0.0,87,0.00,,,0.00,Wunderground v.1.15,2013-03-15 08:45:00,
2013-03-15 04:55:00,23.3,20.0,30.25,WNW,290,0.0,0.0,87,0.00,,,0.00,Wunderground v.1.15,2013-03-15 08:55:00,
2013-03-15 05:00:00,23.1,19.8,30.25,WNW,290,0.0,0.0,87,0.00,,,0.00,Wunderground v.1.15,2013-03-15 09:00:00,
2013-03-15 05:10:00,22.9,19.6,30.25,WNW,290,0.0,0.0,87,0.00,,,0.00,Wunderground v.1.15,2013-03-15 09:10:00,
2013-03-15 05:15:00,22.9,19.9,30.25,WNW,290,0.0,0.0,88,0.00,,,0.00,Wunderground v.1.15,2013-03-15 09:15:00,
2013-03-15 05:20:00,22.9,19.6,30.25,WNW,290,0.0,0.0,87,0.00,,,0.00,Wunderground v.1.15,2013-03-15 09:20:00,
2013-03-15 05:25:00,22.7,19.7,30.25,WNW,290,0.0,0.0,88,0.00,,,0.00,Wunderground v.1.15,2013-03-15 09:25:00,
2013-03-15 05:35:00,22.5,19.5,30.26,WNW,290,1.0,1.0,88,0.00,,,0.00,Wunderground v.1.15,2013-03-15 09:35:00,
2013-03-15 05:40:00,22.8,19.8,30.26,WNW,290,0.0,0.0,88,0.00,,,0.00,Wunderground v.1.15,2013-03-15 09:40:00,
2013-03-15 05:45:00,22.9,19.9,30.26,WNW,290,0.0,0.0,88,0.00,,,0.00,Wunderground v.1.15,2013-03-15 09:45:00,
2013-03-15 05:55:00,23.3,20.5,30.27,WNW,290,0.0,0.0,89,0.00,,,0.00,Wunderground v.1.15,2013-03-15 09:55:00,
2013-03-15 06:00:00,23.6,20.8,30.27,WNW,290,0.0,0.0,89,0.00,,,0.00,Wunderground v.1.15,2013-03-15 10:00:00,
2013-03-15 06:10:00,23.9,21.1,30.27,WNW,290,0.0,0.0,89,0.00,,,0.00,Wunderground v.1.15,2013-03-15 10:10:00,
2013-03-15 06:15:00,24.1,21.1,30.27,WNW,290,0.0,0.0,88,0.00,,,0.00,Wunderground v.1.15,2013-03-15 10:15:00,
2013-03-15 06:25:00,24.5,21.5,30.27,WNW,290,0.0,0.0,88,0.00,,,0.00,Wunderground v.1.15,2013-03-15 10:25:00,
2013-03-15 06:30:00,24.7,21.7,30.27,WNW,290,0.0,0.0,88,0.00,,,0.00,Wunderground v.1.15,2013-03-15 10:30:00,
2013-03-15 06:40:00,24.9,21.8,30.27,WNW,290,0.0,0.0,88,0.00,,,0.00,Wunderground v.1.15,2013-03-15 10:40:00,
2013-03-15 06:50:00,25.3,22.2,30.27,WNW,290,0.0,0.0,88,0.00,,,0.00,Wunderground v.1.15,2013-03-15 10:50:00,
2013-03-15 06:55:00,25.4,22.3,30.27,WNW,290,0.0,0.0,88,0.00,,,0.00,Wunderground v.1.15,2013-03-15 10:55:00,
2013-03-15 07:05:00,25.8,22.5,30.27,WNW,290,0.0,0.0,87,0.00,,,0.00,Wunderground v.1.15,2013-03-15 11:05:00,
2013-03-15 07:10:00,26.0,22.7,30.27,WNW,290,0.0,0.0,87,0.00,,,0.00,Wunderground v.1.15,2013-03-15 11:10:00,
2013-03-15 07:20:00,26.4,23.1,30.27,WNW,290,0.0,0.0,87,0.00,,,0.00,Wunderground v.1.15,2013-03-15 11:20:00,
2013-03-15 07:25:00,26.6,23.0,30.26,WNW,290,0.0,0.0,86,0.00,,,0.00,Wunderground v.1.15,2013-03-15 11:25:00,
2013-03-15 07:30:00,26.7,23.4,30.27,WNW,290,0.0,0.0,87,0.00,,,0.00,Wunderground v.1.15,2013-03-15 11:30:00,
2013-03-15 07:40:00,27.0,23.4,30.26,WNW,290,0.0,0.0,86,0.00,,,0.00,Wunderground v.1.15,2013-03-15 11:40:00,
2013-03-15 07:45:00,27.1,23.5,30.26,WNW,290,0.0,0.0,86,0.00,,,0.00,Wunderground v.1.15,2013-03-15 11:45:00,
2013-03-15 07:50:00,27.2,23.6,30.27,WNW,290,0.0,0.0,86,0.00,,,0.00,Wunderground v.1.15,2013-03-15 11:50:00,
2013-03-15 07:55:00,27.3,23.7,30.26,WNW,290,0.0,0.0,86,0.00,,,0.00,Wunderground v.1.15,2013-03-15 11:55:00,
2013-03-15 08:00:00,27.3,25.3,30.26,WNW,290,0.0,0.0,92,0.00,,,0.00,Wunderground v.1.15,2013-03-15 12:00:00,
2013-03-15 08:10:00,27.4,23.5,30.26,WNW,290,0.0,0.0,85,0.00,,,0.00,Wunderground v.1.15,2013-03-15 12:10:00,
2013-03-15 08:15:00,27.4,23.5,30.26,WNW,290,0.0,0.0,85,0.00,,,0.00,Wunderground v.1.15,2013-03-15 12:15:00,
2013-03-15 08:25:00,27.5,23.6,30.26,WNW,290,0.0,0.0,85,0.00,,,0.00,Wunderground v.1.15,2013-03-15 12:25:00,
2013-03-15 08:30:00,27.7,23.8,30.26,WNW,290,0.0,0.0,85,0.00,,,0.00,Wunderground v.1.15,2013-03-15 12:30:00,
2013-03-15 08:35:00,27.9,24.0,30.25,WNW,290,0.0,0.0,85,0.00,,,0.00,Wunderground v.1.15,2013-03-15 12:35:00,
2013-03-15 08:40:00,28.0,23.8,30.25,WNW,290,0.0,0.0,84,0.00,,,0.00,Wunderground v.1.15,2013-03-15 12:40:00,
2013-03-15 08:45:00,28.2,24.0,30.25,WNW,290,0.0,0.0,84,0.00,,,0.00,Wunderground v.1.15,2013-03-15 12:45:00,
2013-03-15 08:55:00,28.6,24.4,30.25,WNW,290,0.0,0.0,84,0.00,,,0.00,Wunderground v.1.15,2013-03-15 12:55:00,
2013-03-15 09:00:00,28.9,24.7,30.25,WNW,290,0.0,0.0,84,0.00,,,0.00,Wunderground v.1.15,2013-03-15 13:00:00,
2013-03-15 09:10:00,30.2,25.7,30.24,WNW,290,0.0,0.0,83,0.00,,,0.00,Wunderground v.1.15,2013-03-15 13:10:00,
2013-03-15 09:15:00,30.8,26.0,30.24,WNW,290,0.0,0.0,82,0.00,,,0.00,Wunderground v.1.15,2013-03-15 13:15:00,
2013-03-15 09:20:00,31.7,26.2,30.24,WNW,290,0.0,0.0,80,0.00,,,0.00,Wunderground v.1.15,2013-03-15 13:20:00,
2013-03-15 09:25:00,32.3,25.9,30.23,WNW,290,0.0,0.0,77,0.00,,,0.00,Wunderground v.1.15,2013-03-15 13:25:00,
2013-03-15 09:30:00,33.3,25.2,30.23,WNW,290,0.0,0.0,72,0.00,,,0.00,Wunderground v.1.15,2013-03-15 13:30:00,
2013-03-15 09:40:00,35.0,25.5,30.23,WNW,290,0.0,0.0,68,0.00,,,0.00,Wunderground v.1.15,2013-03-15 13:40:00,
2013-03-15 09:50:00,36.5,25.1,30.23,WNW,290,0.0,1.0,63,0.00,,,0.00,Wunderground v.1.15,2013-03-15 13:50:00,
2013-03-15 09:55:00,37.0,24.8,30.23,WNW,296,1.0,1.0,61,0.00,,,0.00,Wunderground v.1.15,2013-03-15 13:55:00,
2013-03-15 10:00:00,37.5,26.0,30.23,NW,308,1.0,3.0,63,0.00,,,0.00,Wunderground v.1.15,2013-03-15 14:00:00,
2013-03-15 10:05:00,38.0,25.7,30.22,NW,313,1.0,3.0,61,0.00,,,0.00,Wunderground v.1.15,2013-03-15 14:05:00,
2013-03-15 10:10:00,38.3,26.4,30.22,West,274,1.0,1.0,62,0.00,,,0.00,Wunderground v.1.15,2013-03-15 14:10:00,
2013-03-15 10:15:00,38.6,26.7,30.22,WNW,300,2.0,3.0,62,0.00,,,0.00,Wunderground v.1.15,2013-03-15 14:15:00,
2013-03-15 10:25:00,38.9,27.4,30.22,SW,236,3.0,3.0,63,0.00,,,0.00,Wunderground v.1.15,2013-03-15 14:25:00,
2013-03-15 10:30:00,39.3,27.0,30.22,NW,319,2.0,8.0,61,0.00,,,0.00,Wunderground v.1.15,2013-03-15 14:30:00,
2013-03-15 10:40:00,39.7,28.1,30.21,North,355,3.0,6.0,63,0.00,,,0.00,Wunderground v.1.15,2013-03-15 14:40:00,
2013-03-15 10:45:00,40.0,28.4,30.21,NW,315,3.0,6.0,63,0.00,,,0.00,Wunderground v.1.15,2013-03-15 14:45:00,
2013-03-15 10:55:00,40.4,28.8,30.20,NW,304,4.0,6.0,63,0.00,,,0.00,Wunderground v.1.15,2013-03-15 14:55:00,
2013-03-15 11:05:00,41.4,29.7,30.20,WNW,296,3.0,6.0,63,0.00,,,0.00,Wunderground v.1.15,2013-03-15 15:05:00,
2013-03-15 11:10:00,42.1,30.4,30.19,NW,311,3.0,5.0,63,0.00,,,0.00,Wunderground v.1.15,2013-03-15 15:10:00,
2013-03-15 11:15:00,42.6,30.5,30.19,NW,317,4.0,5.0,62,0.00,,,0.00,Wunderground v.1.15,2013-03-15 15:15:00,
2013-03-15 11:25:00,43.8,31.6,30.18,WNW,298,4.0,7.0,62,0.00,,,0.00,Wunderground v.1.15,2013-03-15 15:25:00,
2013-03-15 11:30:00,44.3,31.7,30.18,NW,311,5.0,5.0,61,0.00,,,0.00,Wunderground v.1.15,2013-03-15 15:30:00,
2013-03-15 11:35:00,44.8,31.8,30.17,North,5,5.0,5.0,60,0.00,,,0.00,Wunderground v.1.15,2013-03-15 15:35:00,
2013-03-15 11:40:00,45.5,32.8,30.17,NNW,328,4.0,4.0,61,0.00,,,0.00,Wunderground v.1.15,2013-03-15 15:40:00,
2013-03-15 11:45:00,46.0,32.5,30.17,West,279,3.0,4.0,59,0.00,,,0.00,Wunderground v.1.15,2013-03-15 15:45:00,
2013-03-15 11:55:00,47.1,33.9,30.17,NW,304,4.0,10.0,60,0.00,,,0.00,Wunderground v.1.15,2013-03-15 15:55:00,
2013-03-15 12:00:00,47.3,32.8,30.17,West,270,4.0,4.0,57,0.00,,,0.00,Wunderground v.1.15,2013-03-15 16:00:00,
2013-03-15 12:10:00,47.9,33.4,30.16,NNW,339,4.0,4.0,57,0.00,,,0.00,Wunderground v.1.15,2013-03-15 16:10:00,
2013-03-15 12:15:00,48.7,34.1,30.16,WNW,284,3.0,10.0,57,0.00,,,0.00,Wunderground v.1.15,2013-03-15 16:15:00,
2013-03-15 12:20:00,48.5,33.1,30.16,NNE,17,4.0,5.0,55,0.00,,,0.00,Wunderground v.1.15,2013-03-15 16:20:00,
2013-03-15 12:25:00,48.7,32.8,30.15,WNW,286,6.0,6.0,54,0.00,,,0.00,Wunderground v.1.15,2013-03-15 16:25:00,
2013-03-15 12:35:00,49.0,32.1,30.15,WNW,294,7.0,9.0,52,0.00,,,0.00,Wunderground v.1.15,2013-03-15 16:35:00,
2013-03-15 12:40:00,49.9,33.4,30.14,NNW,334,6.0,6.0,53,0.00,,,0.00,Wunderground v.1.15,2013-03-15 16:40:00,
2013-03-15 12:45:00,50.1,32.7,30.14,West,277,6.0,8.0,51,0.00,,,0.00,Wunderground v.1.15,2013-03-15 16:45:00,
2013-03-15 12:55:00,51.1,34.1,30.13,WNW,303,5.0,6.0,52,0.00,,,0.00,Wunderground v.1.15,2013-03-15 16:55:00,
2013-03-15 13:00:00,51.4,34.8,30.13,NW,308,5.0,5.0,53,0.00,,,0.00,Wunderground v.1.15,2013-03-15 17:00:00,
2013-03-15 13:05:00,51.6,34.0,30.13,NW,311,5.0,5.0,51,0.00,,,0.00,Wunderground v.1.15,2013-03-15 17:05:00,
2013-03-15 13:10:00,51.4,33.4,30.12,WNW,290,6.0,6.0,50,0.00,,,0.00,Wunderground v.1.15,2013-03-15 17:10:00,
2013-03-15 13:15:00,51.9,34.3,30.12,WNW,303,5.0,6.0,51,0.00,,,0.00,Wunderground v.1.15,2013-03-15 17:15:00,
2013-03-15 13:25:00,52.3,34.7,30.11,NNW,333,4.0,7.0,51,0.00,,,0.00,Wunderground v.1.15,2013-03-15 17:25:00,
2013-03-15 13:30:00,52.5,33.4,30.10,WNW,287,4.0,7.0,48,0.00,,,0.00,Wunderground v.1.15,2013-03-15 17:30:00,
2013-03-15 13:40:00,53.0,34.3,30.10,NW,320,5.0,7.0,49,0.00,,,0.00,Wunderground v.1.15,2013-03-15 17:40:00,
2013-03-15 13:45:00,53.1,34.9,30.10,NW,318,6.0,8.0,50,0.00,,,0.00,Wunderground v.1.15,2013-03-15 17:45:00,
2013-03-15 13:50:00,53.5,35.3,30.10,WNW,301,5.0,5.0,50,0.00,,,0.00,Wunderground v.1.15,2013-03-15 17:50:00,
2013-03-15 13:55:00,53.7,34.5,30.10,NW,315,4.0,7.0,48,0.00,,,0.00,Wunderground v.1.15,2013-03-15 17:55:00,
2013-03-15 14:05:00,54.2,35.4,30.09,NNW,330,5.0,6.0,49,0.00,,,0.00,Wunderground v.1.15,2013-03-15 18:05:00,
2013-03-15 14:10:00,54.4,35.1,30.08,West,280,5.0,9.0,48,0.00,,,0.00,Wunderground v.1.15,2013-03-15 18:10:00,
2013-03-15 14:15:00,54.2,34.9,30.08,North,10,5.0,9.0,48,0.00,,,0.00,Wunderground v.1.15,2013-03-15 18:15:00,
2013-03-15 14:25:00,54.8,35.5,30.07,WNW,298,5.0,6.0,48,0.00,,,0.00,Wunderground v.1.15,2013-03-15 18:25:00,
2013-03-15 14:30:00,54.7,35.4,30.07,NNW,334,4.0,4.0,48,0.00,,,0.00,Wunderground v.1.15,2013-03-15 18:30:00,
2013-03-15 14:40:00,54.9,35.6,30.06,NW,321,5.0,5.0,48,0.00,,,0.00,Wunderground v.1.15,2013-03-15 18:40:00,
2013-03-15 14:45:00,54.8,36.0,30.06,WNW,302,5.0,5.0,49,0.00,,,0.00,Wunderground v.1.15,2013-03-15 18:45:00,
2013-03-15 14:55:00,55.0,35.1,30.06,NW,320,4.0,5.0,47,0.00,,,0.00,Wunderground v.1.15,2013-03-15 18:55:00,
2013-03-15 15:00:00,55.3,35.9,30.06,West,273,3.0,7.0,48,0.00,,,0.00,Wunderground v.1.15,2013-03-15 19:00:00,
2013-03-15 15:10:00,55.4,35.5,30.05,NNW,342,4.0,6.0,47,0.00,,,0.00,Wunderground v.1.15,2013-03-15 19:10:00,
2013-03-15 15:15:00,55.5,35.6,30.05,NNW,327,4.0,6.0,47,0.00,,,0.00,Wunderground v.1.15,2013-03-15 19:15:00,
2013-03-15 15:25:00,55.5,35.6,30.05,NNW,347,4.0,9.0,47,0.00,,,0.00,Wunderground v.1.15,2013-03-15 19:25:00,
2013-03-15 15:30:00,55.6,36.2,30.04,NNW,344,4.0,4.0,48,0.00,,,0.00,Wunderground v.1.15,2013-03-15 19:30:00,
2013-03-15 15:35:00,55.9,36.5,30.04,WNW,303,4.0,4.0,48,0.00,,,0.00,Wunderground v.1.15,2013-03-15 19:35:00,
2013-03-15 15:40:00,56.1,36.7,30.04,NW,325,4.0,4.0,48,0.00,,,0.00,Wunderground v.1.15,2013-03-15 19:40:00,
2013-03-15 15:45:00,56.2,36.8,30.04,NW,325,4.0,4.0,48,0.00,,,0.00,Wunderground v.1.15,2013-03-15 19:45:00,
2013-03-15 15:55:00,56.3,36.8,30.03,WNW,293,5.0,7.0,48,0.00,,,0.00,Wunderground v.1.15,2013-03-15 19:55:00,
2013-03-15 16:00:00,56.2,36.8,30.03,NW,308,5.0,8.0,48,0.00,,,0.00,Wunderground v.1.15,2013-03-15 20:00:00,
2013-03-15 16:10:00,56.6,37.1,30.03,NW,324,6.0,6.0,48,0.00,,,0.00,Wunderground v.1.15,2013-03-15 20:10:00,
2013-03-15 16:15:00,56.7,36.7,30.02,NNW,336,6.0,7.0,47,0.00,,,0.00,Wunderground v.1.15,2013-03-15 20:15:00,
2013-03-15 16:20:00,56.6,36.0,30.03,NNW,348,7.0,9.0,46,0.00,,,0.00,Wunderground v.1.15,2013-03-15 20:20:00,
2013-03-15 16:25:00,56.8,37.3,30.02,NNW,329,6.0,9.0,48,0.00,,,0.00,Wunderground v.1.15,2013-03-15 20:25:00,
2013-03-15 16:35:00,57.1,37.6,30.02,North,355,5.0,5.0,48,0.00,,,0.00,Wunderground v.1.15,2013-03-15 20:35:00,
2013-03-15 16:40:00,57.0,37.0,30.02,NW,315,6.0,6.0,47,0.00,,,0.00,Wunderground v.1.15,2013-03-15 20:40:00,
2013-03-15 16:45:00,56.9,36.9,30.01,NNW,327,6.0,6.0,47,0.00,,,0.00,Wunderground v.1.15,2013-03-15 20:45:00,
2013-03-15 16:55:00,56.7,36.7,30.01,NNW,338,5.0,12.0,47,0.00,,,0.00,Wunderground v.1.15,2013-03-15 20:55:00,
2013-03-15 17:00:00,56.7,36.7,30.02,WNW,294,5.0,5.0,47,0.00,,,0.00,Wunderground v.1.15,2013-03-15 21:00:00,
2013-03-15 17:05:00,56.8,36.8,30.01,WNW,284,4.0,5.0,47,0.00,,,0.00,Wunderground v.1.15,2013-03-15 21:05:00,
2013-03-15 17:10:00,56.8,36.8,30.01,North,355,4.0,4.0,47,0.00,,,0.00,Wunderground v.1.15,2013-03-15 21:10:00,
2013-03-15 17:15:00,56.9,36.9,30.01,NW,306,4.0,4.0,47,0.00,,,0.00,Wunderground v.1.15,2013-03-15 21:15:00,
2013-03-15 17:25:00,56.9,36.3,30.01,NW,323,4.0,4.0,46,0.00,,,0.00,Wunderground v.1.15,2013-03-15 21:25:00,
2013-03-15 17:30:00,56.9,36.9,30.01,NNW,337,4.0,4.0,47,0.00,,,0.00,Wunderground v.1.15,2013-03-15 21:30:00,
2013-03-15 17:35:00,57.0,37.0,30.01,NW,306,4.0,4.0,47,0.00,,,0.00,Wunderground v.1.15,2013-03-15 21:35:00,
2013-03-15 17:40:00,57.1,37.6,30.01,WNW,293,3.0,3.0,48,0.00,,,0.00,Wunderground v.1.15,2013-03-15 21:40:00,
2013-03-15 17:45:00,57.1,37.0,30.01,WNW,288,3.0,5.0,47,0.00,,,0.00,Wunderground v.1.15,2013-03-15 21:45:00,
2013-03-15 17:55:00,57.1,37.6,30.00,NW,305,3.0,4.0,48,0.00,,,0.00,Wunderground v.1.15,2013-03-15 21:55:00,
2013-03-15 18:00:00,57.0,37.0,30.00,NNW,327,3.0,3.0,47,0.00,,,0.00,Wunderground v.1.15,2013-03-15 22:00:00,
2013-03-15 18:10:00,57.1,36.5,30.01,NW,319,3.0,3.0,46,0.00,,,0.00,Wunderground v.1.15,2013-03-15 22:10:00,
2013-03-15 18:15:00,57.1,36.5,30.00,North,355,3.0,3.0,46,0.00,,,0.00,Wunderground v.1.15,2013-03-15 22:15:00,
2013-03-15 18:20:00,57.0,37.0,30.01,NW,320,3.0,3.0,47,0.00,,,0.00,Wunderground v.1.15,2013-03-15 22:20:00,
2013-03-15 18:25:00,57.0,36.4,30.00,NW,316,2.0,4.0,46,0.00,,,0.00,Wunderground v.1.15,2013-03-15 22:25:00,
2013-03-15 18:35:00,56.9,37.4,30.00,NW,320,3.0,3.0,48,0.00,,,0.00,Wunderground v.1.15,2013-03-15 22:35:00,
2013-03-15 18:40:00,56.9,36.9,30.00,NW,315,2.0,3.0,47,0.00,,,0.00,Wunderground v.1.15,2013-03-15 22:40:00,
2013-03-15 18:45:00,56.8,37.8,30.01,NW,311,3.0,3.0,49,0.00,,,0.00,Wunderground v.1.15,2013-03-15 22:45:00,
2013-03-15 18:55:00,56.4,36.4,30.01,NW,313,3.0,3.0,47,0.00,,,0.00,Wunderground v.1.15,2013-03-15 22:55:00,
2013-03-15 19:00:00,56.2,37.3,30.01,West,273,2.0,3.0,49,0.00,,,0.00,Wunderground v.1.15,2013-03-15 23:00:00,
2013-03-15 19:05:00,55.9,37.0,30.00,NW,318,2.0,3.0,49,0.00,,,0.00,Wunderground v.1.15,2013-03-15 23:05:00,
2013-03-15 19:10:00,55.1,37.3,30.00,West,267,2.0,4.0,51,0.00,,,0.00,Wunderground v.1.15,2013-03-15 23:10:00,
2013-03-15 19:15:00,54.6,37.3,30.00,WNW,295,2.0,4.0,52,0.00,,,0.00,Wunderground v.1.15,2013-03-15 23:15:00,
2013-03-15 19:25:00,53.1,37.3,30.00,WNW,295,1.0,1.0,55,0.00,,,0.00,Wunderground v.1.15,2013-03-15 23:25:00,
2013-03-15 19:35:00,51.4,37.1,30.00,WNW,295,1.0,2.0,58,0.00,,,0.00,Wunderground v.1.15,2013-03-15 23:35:00,
2013-03-15 19:40:00,50.6,37.2,30.00,WNW,295,1.0,1.0,60,0.00,,,0.00,Wunderground v.1.15,2013-03-15 23:40:00,
2013-03-15 19:45:00,50.0,37.1,30.00,WNW,295,0.0,1.0,61,0.00,,,0.00,Wunderground v.1.15,2013-03-15 23:45:00,
2013-03-15 19:55:00,48.2,37.0,30.01,WNW,295,0.0,1.0,65,0.00,,,0.00,Wunderground v.1.15,2013-03-15 23:55:00,
2013-03-15 20:00:00,46.9,36.9,30.01,WNW,295,0.0,1.0,68,0.00,,,0.00,Wunderground v.1.15,2013-03-16 00:00:00,
2013-03-15 20:05:00,46.1,36.5,30.01,WNW,295,0.0,1.0,69,0.00,,,0.00,Wunderground v.1.15,2013-03-16 00:05:00,
2013-03-15 20:10:00,45.5,36.6,30.01,WNW,295,0.0,0.0,71,0.00,,,0.00,Wunderground v.1.15,2013-03-16 00:10:00,
2013-03-15 20:15:00,44.9,36.4,30.01,WNW,295,0.0,0.0,72,0.00,,,0.00,Wunderground v.1.15,2013-03-16 00:15:00,
2013-03-15 20:25:00,44.3,36.5,30.01,WNW,295,1.0,1.0,74,0.00,,,0.00,Wunderground v.1.15,2013-03-16 00:25:00,
2013-03-15 20:30:00,43.5,36.1,30.01,WNW,295,0.0,0.0,75,0.00,,,0.00,Wunderground v.1.15,2013-03-16 00:30:00,
2013-03-15 20:40:00,42.9,36.2,30.01,WNW,295,0.0,0.0,77,0.00,,,0.00,Wunderground v.1.15,2013-03-16 00:40:00,
2013-03-15 20:50:00,42.0,36.0,30.01,WNW,295,0.0,2.0,79,0.00,,,0.00,Wunderground v.1.15,2013-03-16 00:50:00,
2013-03-15 20:55:00,41.7,35.7,30.01,WNW,295,0.0,2.0,79,0.00,,,0.00,Wunderground v.1.15,2013-03-16 00:55:00,
2013-03-15 21:00:00,41.5,35.5,30.01,WNW,295,0.0,0.0,79,0.00,,,0.00,Wunderground v.1.15,2013-03-16 01:00:00,
2013-03-15 21:10:00,40.8,35.4,30.01,WNW,295,0.0,0.0,81,0.00,,,0.00,Wunderground v.1.15,2013-03-16 01:10:00,
2013-03-15 21:15:00,40.7,35.3,30.01,WNW,295,0.0,0.0,81,0.00,,,0.00,Wunderground v.1.15,2013-03-16 01:15:00,
2013-03-15 21:25:00,40.0,34.9,30.01,WNW,295,0.0,0.0,82,0.00,,,0.00,Wunderground v.1.15,2013-03-16 01:25:00,
2013-03-15 21:30:00,39.9,34.9,30.01,WNW,295,0.0,0.0,82,0.00,,,0.00,Wunderground v.1.15,2013-03-16 01:30:00,
2013-03-15 21:40:00,39.7,35.0,30.00,WNW,295,0.0,0.0,83,0.00,,,0.00,Wunderground v.1.15,2013-03-16 01:40:00,
2013-03-15 21:45:00,39.5,34.8,30.00,WNW,295,0.0,1.0,83,0.00,,,0.00,Wunderground v.1.15,2013-03-16 01:45:00,
2013-03-15 21:50:00,39.2,34.8,30.00,WNW,295,0.0,1.0,84,0.00,,,0.00,Wunderground v.1.15,2013-03-16 01:50:00,
2013-03-15 21:55:00,39.0,34.6,30.00,WNW,295,1.0,1.0,84,0.00,,,0.00,Wunderground v.1.15,2013-03-16 01:55:00,
2013-03-15 22:00:00,38.7,34.3,30.00,WNW,295,1.0,1.0,84,0.00,,,0.00,Wunderground v.1.15,2013-03-16 02:00:00,
2013-03-15 22:10:00,38.6,34.5,30.00,WNW,295,0.0,0.0,85,0.00,,,0.00,Wunderground v.1.15,2013-03-16 02:10:00,
2013-03-15 22:15:00,38.4,34.3,30.00,WNW,295,0.0,0.0,85,0.00,,,0.00,Wunderground v.1.15,2013-03-16 02:15:00,
2013-03-15 22:25:00,38.3,34.5,30.00,WNW,295,0.0,0.0,86,0.00,,,0.00,Wunderground v.1.15,2013-03-16 02:25:00,
2013-03-15 22:30:00,37.9,34.1,29.99,WNW,295,0.0,0.0,86,0.00,,,0.00,Wunderground v.1.15,2013-03-16 02:30:00,
2013-03-15 22:40:00,37.7,34.2,29.99,WNW,295,0.0,0.0,87,0.00,,,0.00,Wunderground v.1.15,2013-03-16 02:40:00,
2013-03-15 22:45:00,37.6,34.1,29.99,WNW,295,0.0,0.0,87,0.00,,,0.00,Wunderground v.1.15,2013-03-16 02:45:00,
2013-03-15 22:55:00,37.4,33.9,29.99,WNW,295,0.0,0.0,87,0.00,,,0.00,Wunderground v.1.15,2013-03-16 02:55:00,
2013-03-15 23:00:00,37.2,33.7,29.99,WNW,295,0.0,0.0,87,0.00,,,0.00,Wunderground v.1.15,2013-03-16 03:00:00,
2013-03-15 23:10:00,36.9,33.4,29.99,WNW,295,0.0,0.0,87,0.00,,,0.00,Wunderground v.1.15,2013-03-16 03:10:00,
2013-03-15 23:15:00,36.8,33.6,29.98,WNW,295,0.0,0.0,88,0.00,,,0.00,Wunderground v.1.15,2013-03-16 03:15:00,
2013-03-15 23:20:00,36.5,33.3,29.98,WNW,295,0.0,0.0,88,0.00,,,0.00,Wunderground v.1.15,2013-03-16 03:20:00,
2013-03-15 23:25:00,36.4,33.2,29.98,WNW,295,0.0,0.0,88,0.00,,,0.00,Wunderground v.1.15,2013-03-16 03:25:00,
2013-03-15 23:35:00,36.2,33.3,29.98,WNW,295,0.0,0.0,89,0.00,,,0.00,Wunderground v.1.15,2013-03-16 03:35:00,
2013-03-15 23:40:00,35.8,32.6,29.98,WNW,295,1.0,2.0,88,0.00,,,0.00,Wunderground v.1.15,2013-03-16 03:40:00,
2013-03-15 23:45:00,35.9,33.3,29.98,WNW,295,1.0,2.0,90,0.00,,,0.00,Wunderground v.1.15,2013-03-16 03:45:00,
2013-03-15 23:55:00,35.9,33.0,29.97,WNW,295,0.0,1.0,89,0.00,,,0.00,Wunderground v.1.15,2013-03-16 03:55:00,